Medicine Lodge, KS

6:31 AM CDT on May 30, 2017 (GMT -0500)
Medicine Lodge

Weather History for KP28 - February, 2014

Change the Weather History Date:

Monday, February 17, 2014

  Actual Average Record
Temperature  
Mean Temperature 52 °F 39 °F  
Max Temperature 63 °F 51 °F 82 °F (1970)
Min Temperature 40 °F 26 °F -5 °F (1903)
Degree Days  
Heating Degree Days 13 26  
Month to date heating degree days 670 481  
Since 1 July heating degree days 3662 3258  
Cooling Degree Days 0 0  
Month to date cooling degree days 0 0  
Year to date cooling degree days 0 0  
Growing Degree Days 2 (Base 50)    
Moisture  
Dew Point 26 °F    
Average Humidity 53    
Maximum Humidity 89    
Minimum Humidity 16    
Precipitation  
Precipitation 0.00 in 0.03 in 1.51 in (1911)
Month to date precipitation 0.78 0.54  
Year to date precipitation 0.93 1.25  
Snow  
Snow 0.00 in 0.10 in - ()
Month to date snowfall 0.0 1.7  
Since 1 July snowfall 10.0 7.9  
Snow Depth 0.00 in    
Sea Level Pressure  
Sea Level Pressure 30.02 in    
Wind  
Wind Speed 12 mph (WNW)    
Max Wind Speed 36 mph    
Max Gust Speed 48 mph    
T = Trace of Precipitation, MM = Missing Value Source: NWS Daily Summary

Daily Weather History Graph

Daily Weather History Graph

Search for Another Location

Airport or City:

Trip Planner

Search our weather history database for the weather conditions in past years. The results will help you decide how hot, cold, wet, or windy it might be!

Date:

Astronomy

Feb. 17, 2014 Rise Set
Actual Time 7:20 AM CST 6:16 PM CST
Civil Twilight 6:54 AM CST 6:42 PM CST
Nautical Twilight 6:23 AM CST 7:13 PM CST
Astronomical Twilight 5:53 AM CST 7:43 PM CST
Moon 9:07 PM CST (2/17) 8:26 AM CST (2/17)
Length of Visible Light 11h 48m
Length of Day
10h 55m
Waning Gibbous, 93% of the Moon is Illuminated
Feb 17
Waning Gibbous
Feb 22
Last Quarter
Mar 1
New
Mar 8
First Quarter
Mar 16
Full

Hourly Weather History & Observations

Time (CST) Temp. Windchill Dew Point Humidity Pressure Visibility Wind Dir Wind Speed Gust Speed Precip Events Conditions
12:56 AM 43.0 °F 41.3 °F 39.9 °F 89% 29.73 in - SSE 3.5 mph - N/A   Unknown
1:56 AM 42.1 °F 40.2 °F 37.9 °F 85% 29.76 in - Variable 3.5 mph - N/A   Unknown
2:56 AM 44.1 °F 37.7 °F 37.0 °F 76% 29.80 in - NW 12.7 mph 20.7 mph N/A   Unknown
3:56 AM 50.0 °F - 33.1 °F 52% 29.85 in - NW 16.1 mph 25.3 mph N/A   Unknown
4:56 AM 52.0 °F - 23.0 °F 32% 29.88 in - NNW 29.9 mph 43.7 mph N/A   Unknown
5:56 AM 48.9 °F - 30.0 °F 48% 29.96 in - NNW 27.6 mph 44.9 mph N/A   Unknown
6:56 AM 46.0 °F 37.6 °F 30.0 °F 54% 30.01 in - North 24.2 mph 39.1 mph N/A   Unknown
7:56 AM 44.1 °F 35.7 °F 30.9 °F 60% 30.06 in - NNW 20.7 mph 29.9 mph N/A   Unknown
8:56 AM 46.9 °F - 32.0 °F 56% 30.11 in - NNW 19.6 mph 29.9 mph N/A   Unknown
9:56 AM 51.1 °F - 30.9 °F 46% 30.12 in - North 16.1 mph 23.0 mph N/A   Unknown
10:56 AM 55.0 °F - 28.9 °F 37% 30.14 in - NW 11.5 mph - N/A   Unknown
11:56 AM 59.0 °F - 24.1 °F 26% 30.12 in - NNW 16.1 mph 24.2 mph N/A   Unknown
12:56 PM 59.0 °F - 23.0 °F 25% 30.12 in - NNW 10.4 mph - N/A   Unknown
1:56 PM 61.0 °F - 19.9 °F 21% 30.11 in - NW 11.5 mph 19.6 mph N/A   Unknown
2:56 PM 61.0 °F - 17.1 °F 18% 30.09 in - NW 11.5 mph - N/A   Unknown
3:56 PM 62.1 °F - 16.0 °F 17% 30.08 in - WSW 9.2 mph - N/A   Unknown
4:56 PM 61.0 °F - 15.1 °F 17% 30.07 in - SW 9.2 mph - N/A   Unknown
5:56 PM 57.0 °F - 18.0 °F 22% 30.07 in - SSW 5.8 mph - N/A   Unknown
6:56 PM 51.1 °F - 19.9 °F 29% 30.08 in - SSW 6.9 mph - N/A   Unknown
7:56 PM 48.0 °F - 21.9 °F 36% 30.08 in - South 8.1 mph - N/A   Unknown
8:56 PM 45.0 °F 41.8 °F 21.9 °F 40% 30.07 in - South 5.8 mph - N/A   Unknown
9:56 PM 43.0 °F - 21.0 °F 42% 30.06 in - Calm Calm - N/A   Unknown
10:56 PM 44.1 °F 39.0 °F 21.9 °F 42% 30.04 in - South 9.2 mph - N/A   Unknown
11:56 PM 44.1 °F 40.8 °F 21.9 °F 42% 30.00 in - SSE 5.8 mph - N/A   Unknown